[[{"header":{"parameterUnit":"m.s-1","parameterCategory":1,"la1":30.2991,"la2":30.254,"lo1":-89.0895,"lo2":-89.0444,"dy":0.0017,"dx":0.0017,"nx":28,"ny":28,"refTime":"2025-03-13T21:00:00:Z","depth":0,"parameterNumber":2,"parameterNumberName":"U-component_of_WINDS"},"data":[0,0,0,0,0,0,0,0,0,0,0,0,0,0,0,0,0,0,0,0,0,0,0,0,0,0,0,0,0,0,0,0,0,0,0,0,0,0,0,0,0,0,0,0,0,0,0,0,0,0,0,0,0,0,0,0,0,0,1.4308,1.4309,0,1.4349,1.4349,1.435,1.4312,1.431,1.4309,1.4308,1.435,1.4352,1.4355,0,0,0,0,0,0,0,0,0,0,0,0,0,1.42,1.4202,1.4308,1.4309,1.4309,1.4349,1.4349,1.435,1.4312,1.431,1.4309,1.4307,1.4349,1.4352,1.4355,0,0,0,0,0,0,0,0,0,0,0,0,0,1.4244,1.4203,1.4308,1.4295,1.4294,1.4349,1.4349,1.435,1.4313,1.431,1.4308,1.4306,1.4348,1.4352,1.4356,1.4425,0,0,1.4367,1.4369,0,0,0,0,0,0,0,0,1.4242,1.4248,1.4297,1.4296,1.4295,1.4323,1.4327,1.4375,1.4313,1.4306,1.4307,1.4305,1.4343,1.4347,1.436,1.4427,1.4429,1.4368,1.437,1.4372,1.4373,0,0,0,0,0,0,0,1.4239,1.4246,1.4324,1.4297,1.4297,1.4288,1.4292,1.4336,1.4337,1.4306,1.4304,1.4309,1.4342,1.4356,1.436,1.4429,1.4367,1.4371,1.4373,1.4375,1.4557,1.456,0,0,0,0,0,0,1.4237,1.4244,1.4323,1.4325,1.4262,1.4292,1.4296,1.4316,1.4336,1.4337,1.4311,1.4307,1.4351,1.4356,1.4362,1.4445,1.4372,1.4375,1.4377,1.4555,1.4558,1.456,0,0,0,0,0,0,1.4235,1.4244,1.4321,1.4284,1.4293,1.4296,1.4319,1.4318,1.4332,1.4339,1.434,1.4325,1.4349,1.4356,1.441,1.4446,1.4377,1.438,1.4552,1.4556,1.4559,1.4612,0,0,0,0,0,0,1.4232,1.4244,1.4269,1.4285,1.4295,1.4368,1.4322,1.4321,1.4339,1.4334,1.4353,1.4353,1.4348,1.4404,1.4414,1.445,1.4383,1.4548,1.4553,1.4558,1.4607,1.4617,1.4626,0,0,0,0,0,1.4228,1.4283,1.4271,1.4281,1.4328,1.437,1.4376,1.4369,1.4342,1.4368,1.4373,1.4353,1.4441,1.441,1.442,1.4458,1.4546,1.4552,1.4558,1.4603,1.4615,1.4626,0,0,0,0,0,0,1.4271,1.4284,1.4272,1.4333,1.4351,1.4364,1.4397,1.4382,1.4408,1.4402,1.4392,1.4396,1.4453,1.4461,1.4427,1.4527,1.4489,1.4497,1.452,1.4532,1.4541,1.4538,1.4386,0,0,0,0,0,1.4288,1.4321,1.4331,1.4384,1.4394,1.4394,1.4412,1.4405,1.4423,1.4431,1.4439,1.4458,1.449,1.4511,1.4541,1.4608,1.4612,1.4639,1.4649,1.4656,1.4664,1.4701,1.4714,1.4579,1.4579,1.4579,0,0,1.4322,1.4334,1.4355,1.4393,1.4406,1.4441,1.44,1.4439,1.4466,1.4437,1.4488,1.4495,1.4516,1.4577,1.4604,1.4585,1.4702,1.4664,1.467,1.4673,1.4708,1.4721,1.4732,1.4583,1.4583,1.4582,0,0,1.4403,1.4415,1.4461,1.4475,1.4496,1.4496,1.4507,1.4523,1.4527,1.4578,1.4558,1.4589,1.4644,1.466,1.4675,1.4765,1.4747,1.4775,1.4824,1.486,1.4871,1.488,1.4913,1.4925,1.4782,1.4782,1.4782,0,1.4443,1.4496,1.4486,1.4527,1.4545,1.4521,1.4568,1.4583,1.4612,1.4625,1.4603,1.4673,1.4685,1.475,1.4772,1.4785,1.4798,1.4773,1.487,1.4879,1.4888,1.4919,1.4931,1.4785,1.4785,1.4785,1.4784,0,1.4545,1.4581,1.4616,1.4646,1.4668,1.4711,1.471,1.4733,1.4724,1.4727,1.478,1.4794,1.4827,1.4842,1.4833,1.4906,1.4894,1.4872,1.4833,1.4904,1.4933,1.4945,1.479,1.4789,1.4788,1.4787,0,0,1.4652,1.4678,1.4691,1.4705,1.4727,1.4755,1.4799,1.4831,1.4852,1.4873,1.491,1.4958,1.4938,1.4955,1.4948,1.498,1.5052,1.4954,1.4955,1.4973,1.5134,1.5151,1.5165,1.504,1.5043,1.5044,1.5133,0,1.4735,1.481,1.4804,1.4876,1.491,1.4889,1.4927,1.4945,1.4949,1.498,1.4984,1.5019,1.4989,1.5,1.503,1.5037,1.5084,1.503,1.5075,1.5077,1.5071,1.518,1.5198,1.528,1.5144,1.5146,1.5147,0,1.4841,1.4867,1.4942,1.496,1.4975,1.5009,1.5039,1.5068,1.5089,1.5089,1.511,1.5098,1.5143,1.5104,1.5166,1.5129,1.5147,1.5154,1.5157,1.5161,1.5116,1.5187,1.5306,1.5319,1.5165,1.5163,1.5162,0,1.4913,1.4967,1.5019,1.5032,1.5054,1.5079,1.509,1.5108,1.5128,1.5155,1.5168,1.5199,1.5216,1.5241,1.5239,1.521,1.5302,1.5262,1.5305,1.5305,1.5325,1.5324,1.5449,1.5336,1.5336,1.5336,1.5336,0,1.5006,1.5053,1.5052,1.5084,1.5137,1.513,1.5182,1.519,1.5207,1.5241,1.5224,1.5257,1.5251,1.5284,1.5282,1.5334,1.5342,1.5345,1.5344,1.5346,1.5346,1.5358,1.5352,1.5339,1.5338,1.5338,1.5337,0,1.5095,1.5096,1.5152,1.5169,1.5175,1.5213,1.5228,1.5259,1.5262,1.5306,1.5316,1.5321,1.5359,1.5359,1.5401,1.54,1.5465,1.5457,1.5458,1.5456,1.5499,1.5495,1.5636,1.5655,1.553,1.5531,1.5532,0,1.5154,1.519,1.5211,1.5233,1.5246,1.5281,1.5302,1.5297,1.532,1.5347,1.5375,1.5411,1.544,1.5501,1.5509,1.5542,1.5535,1.5582,1.554,1.5542,1.5537,1.5535,1.5539,1.5591,1.5592,1.5593,1.5594,0,1.5259,1.5258,1.5289,1.5321,1.5347,1.5372,1.5395,1.5414,1.5412,1.5438,1.5477,1.5499,1.5544,1.558,1.5612,1.5623,1.5609,1.5608,1.5619,1.5622,1.5622,1.5623,1.5481,1.5604,1.5603,1.5603,1.5602,1.5602,1.5335,1.5366,1.5387,1.5423,1.544,1.5462,1.5493,1.5501,1.5533,1.5569,1.5564,1.5607,1.5629,1.5671,1.5685,1.5719,1.5702,1.5719,1.5724,1.5728,1.5733,1.5616,1.5725,1.5724,1.5724,1.5724,1.5724,0,1.5439,1.5452,1.5485,1.5519,1.5547,1.5532,1.5557,1.5582,1.562,1.5641,1.567,1.5715,1.5751,1.5762,1.5797,1.5822,1.5817,1.5832,1.583,1.5833,1.5745,1.5732,1.5836,1.5836,1.5836,1.5836,1.5836,1.5836,1.5497,1.555,1.5553,1.5615,1.5627,1.567,1.5685,1.5706,1.5723,1.5775,1.5805,1.5812,1.583,1.5866,1.5898,1.5901,1.5915,1.5933,1.5932,1.585,1.5839,1.5828,1.5816,1.5935,1.5936,1.6017,1.6018,1.6019]},{"header":{"parameterUnit":"m.s-1","parameterCategory":1,"la1":30.2991,"la2":30.254,"lo1":-89.0895,"lo2":-89.0444,"dy":0.0017,"dx":0.0017,"nx":28,"ny":28,"refTime":"2025-03-13T21:00:00:Z","depth":0,"parameterNumber":3,"parameterNumberName":"V-component_of_WINDS"},"data":[0,0,0,0,0,0,0,0,0,0,0,0,0,0,0,0,0,0,0,0,0,0,0,0,0,0,0,0,0,0,0,0,0,0,0,0,0,0,0,0,0,0,0,0,0,0,0,0,0,0,0,0,0,0,0,0,0,0,4.1394,4.1394,0,4.1413,4.1414,4.1414,4.1352,4.135,4.1348,4.1346,4.1363,4.1365,4.1367,0,0,0,0,0,0,0,0,0,0,0,0,0,4.1301,4.1303,4.1394,4.1394,4.1394,4.1413,4.1414,4.1414,4.1352,4.135,4.1347,4.1345,4.1362,4.1364,4.1367,0,0,0,0,0,0,0,0,0,0,0,0,0,4.1333,4.1304,4.1394,4.1366,4.1364,4.1413,4.1414,4.1414,4.1352,4.135,4.1347,4.1344,4.1361,4.1364,4.1367,4.1444,0,0,4.1377,4.1379,0,0,0,0,0,0,0,0,4.1331,4.1336,4.137,4.1368,4.1365,4.1377,4.1387,4.1424,4.1353,4.1357,4.1346,4.1343,4.1369,4.1372,4.1382,4.1444,4.1445,4.1378,4.138,4.1381,4.1382,0,0,0,0,0,0,0,4.1329,4.1335,4.1401,4.137,4.1368,4.1352,4.1353,4.1393,4.1378,4.1356,4.1352,4.1355,4.1368,4.1379,4.1381,4.1445,4.1378,4.138,4.1382,4.1384,4.1575,4.1578,0,0,0,0,0,0,4.1331,4.1334,4.1401,4.1402,4.1341,4.1356,4.1357,4.1376,4.1378,4.1375,4.1357,4.1352,4.1374,4.1378,4.1382,4.1473,4.1381,4.1384,4.1386,4.1572,4.1576,4.1579,0,0,0,0,0,0,4.1329,4.1337,4.14,4.1367,4.1374,4.136,4.1382,4.1378,4.1389,4.1379,4.1376,4.1371,4.1372,4.1377,4.143,4.1473,4.1386,4.1388,4.1568,4.1573,4.1577,4.1656,0,0,0,0,0,0,4.1327,4.1337,4.1366,4.1368,4.1376,4.1448,4.1385,4.1381,4.1395,4.1388,4.1391,4.1389,4.137,4.1425,4.1433,4.1476,4.1391,4.1564,4.157,4.1576,4.165,4.1663,4.1674,0,0,0,0,0,4.1324,4.1386,4.1368,4.1377,4.1412,4.1451,4.1455,4.1434,4.1399,4.1428,4.1422,4.1389,4.1467,4.1431,4.1439,4.1484,4.1561,4.1568,4.1575,4.1644,4.166,4.1674,0,0,0,0,0,0,4.1388,4.1386,4.1366,4.1431,4.1442,4.144,4.1476,4.1451,4.1471,4.1464,4.1435,4.1436,4.1494,4.1494,4.1454,4.1559,4.1508,4.1517,4.1558,4.1573,4.1585,4.1584,4.1394,0,0,0,0,0,4.141,4.1443,4.1439,4.1497,4.1504,4.149,4.1505,4.1489,4.1498,4.1502,4.1499,4.1509,4.1536,4.1554,4.1578,4.1649,4.165,4.1684,4.1697,4.1707,4.1715,4.1755,4.1771,4.1602,4.1602,4.1602,0,0,4.1455,4.1458,4.148,4.151,4.1516,4.1551,4.1494,4.1532,4.1557,4.1507,4.1558,4.1556,4.1565,4.1628,4.1656,4.163,4.1762,4.1716,4.1724,4.1727,4.1764,4.178,4.1794,4.1607,4.1606,4.1605,0,0,4.1556,4.1561,4.1612,4.162,4.1632,4.1622,4.1635,4.1638,4.1636,4.1686,4.165,4.1679,4.1726,4.1735,4.1745,4.1853,4.1824,4.1861,4.1926,4.1965,4.1979,4.199,4.203,4.2045,4.1869,4.187,4.187,0,4.161,4.1662,4.164,4.1682,4.1697,4.1655,4.1707,4.1715,4.1733,4.1744,4.1715,4.1775,4.1777,4.1843,4.187,4.1879,4.1893,4.1861,4.1979,4.199,4.2001,4.2039,4.2054,4.1874,4.1874,4.1873,4.1873,0,4.173,4.1767,4.1806,4.1827,4.1846,4.1892,4.1877,4.1899,4.1881,4.1874,4.1927,4.193,4.1955,4.1969,4.195,4.2033,4.2017,4.1984,4.1932,4.2022,4.2057,4.2071,4.1881,4.1879,4.1878,4.1877,0,0,4.187,4.1882,4.1896,4.1907,4.1918,4.1945,4.199,4.2017,4.2037,4.2051,4.2088,4.213,4.2101,4.2113,4.2095,4.2129,4.2217,4.2092,4.2092,4.2117,4.231,4.2336,4.2353,4.2198,4.22,4.2202,4.231,0,4.1971,4.205,4.2033,4.211,4.2145,4.2107,4.2146,4.2157,4.2153,4.2181,4.2176,4.2207,4.2164,4.2172,4.2204,4.22,4.2256,4.2191,4.2233,4.2234,4.2233,4.2371,4.2398,4.25,4.2324,4.2326,4.2327,0,4.2099,4.2122,4.2204,4.2212,4.2226,4.2262,4.2286,4.2313,4.2325,4.232,4.2335,4.2311,4.2356,4.2304,4.2365,4.2322,4.2338,4.2338,4.2341,4.2345,4.2287,4.238,4.2531,4.2547,4.2349,4.2347,4.2345,0,4.2196,4.2246,4.2303,4.2313,4.2323,4.235,4.2355,4.2364,4.2382,4.2403,4.2415,4.244,4.2454,4.2473,4.2457,4.242,4.2522,4.2468,4.2519,4.252,4.2543,4.2542,4.27,4.2551,4.2551,4.255,4.255,0,4.2311,4.2363,4.2347,4.2382,4.2439,4.2419,4.2476,4.2477,4.2486,4.252,4.2488,4.252,4.2496,4.2527,4.2514,4.2568,4.2574,4.2571,4.2567,4.2575,4.2576,4.2585,4.2578,4.2554,4.2554,4.2553,4.2552,0,4.2429,4.242,4.248,4.2486,4.2489,4.2532,4.2536,4.2569,4.2563,4.2607,4.2616,4.2607,4.2641,4.2627,4.2662,4.2654,4.2724,4.271,4.2721,4.2718,4.2771,4.2767,4.2942,4.2965,4.28,4.2801,4.2803,0,4.2504,4.2544,4.2556,4.2578,4.2586,4.2621,4.264,4.2622,4.2643,4.2661,4.2692,4.2724,4.2749,4.2805,4.2801,4.2829,4.2816,4.2876,4.282,4.2827,4.2819,4.2818,4.2822,4.2887,4.2889,4.289,4.2892,0,4.2639,4.2633,4.2663,4.2693,4.2718,4.2739,4.2757,4.2777,4.2759,4.2785,4.2821,4.284,4.2878,4.2911,4.2936,4.294,4.2914,4.291,4.2923,4.2932,4.2937,4.2937,4.2753,4.2906,4.2904,4.2903,4.2902,4.2902,4.2738,4.2773,4.2788,4.2823,4.2836,4.2855,4.2887,4.2887,4.2917,4.2948,4.2935,4.2977,4.299,4.3021,4.3029,4.3062,4.3038,4.3058,4.3063,4.3068,4.3077,4.2932,4.3066,4.3065,4.3065,4.3065,4.3064,0,4.2873,4.2882,4.2914,4.2943,4.2971,4.2946,4.2966,4.299,4.3029,4.3044,4.307,4.3112,4.3145,4.3144,4.3174,4.32,4.3189,4.3209,4.3207,4.3209,4.3095,4.3081,4.3217,4.3217,4.3217,4.3217,4.3217,4.3217,4.2947,4.3005,4.3002,4.3067,4.3074,4.3117,4.3131,4.3149,4.3161,4.3211,4.3238,4.3239,4.3248,4.3278,4.3307,4.3306,4.3319,4.3344,4.3338,4.3232,4.3217,4.3202,4.3189,4.3346,4.3346,4.345,4.3451,4.3452]}]]